Location: Unspecified
(0.0000°N, 0.0000°E)
Time: 16:38:51
(UTC+00:00)

AD-A Canister/Altair 2 - Pass Details

Date: 08 May 2025
Orbit: 593 x 2295 km, 78.6° (Epoch: 12 May)

Event Time Altitude Azimuth Distance (km) Brightness Sun altitude
Rises 19:59:54 0° 211° (SSW) 5,882 11.7 -29.3°
Reaches altitude 10° 20:04:26 10° 221° (SW) 4,817 11.3 -30.4°
Maximum altitude 20:14:11 27° 272° (W) 3,322 10.7 -32.7°
Drops below altitude 10° 20:22:31 10° 325° (NW) 4,010 11.3 -34.6°
Sets 20:25:58 0° 337° (NNW) 4,748 11.6 -35.4°
